Location: Baruta
(10.4340°N, 66.8766°W)
Time: 02:34:18
(UTC+00:00)

Daily predictions for brighter satellites

Satellite Brightness Start Highest point End
(mag) Time Altitude Azimuth Time Altitude Azimuth Time Altitude Azimuth
Cosmos 1151 Rocket 2.9 00:01:24 10° S 00:05:43 88° W 00:09:59 10° N
Cosmos 1816 Rocket 4.4 00:00:39 10° N 00:06:43 64° E 00:10:31 24° SSE
deb Chang Zheng 4 3.3 00:06:12 42° SE 00:07:27 68° ENE 00:11:31 10° N
Ariane H10-3 3.5 00:07:39 10° WSW 00:10:08 22° SSW 00:10:08 22° SSW
Cosmos 1400 Rocket 2.7 00:10:38 10° N 00:14:33 84° W 00:15:31 50° S
Cosmos 1697 Rocket 3.3 00:10:42 10° SSW 00:16:14 58° WNW 00:21:47 10° N
Okean O Rocket 3.9 00:17:23 10° SSW 00:20:44 22° W 00:24:04 10° NW
Ariane H10+ 3.3 00:18:01 10° WSW 00:21:12 29° S 00:21:12 29° S
CSL-04 Debris 4.0 00:21:27 45° SSE 00:23:09 74° ENE 00:28:33 10° N
Cosmos 1743 Rocket 4.4 00:18:56 10° NNW 00:23:12 50° W 00:25:42 23° SSW
H-2A R/B 2.6 00:27:17 64° NE 00:27:17 64° NE 00:31:19 10° N
Cosmos 1805 Rocket 3.7 00:23:37 10° N 00:27:59 71° W 00:28:52 54° SSW
GPS 2-14 Rocket1 3.3 00:24:32 10° WNW 00:27:24 47° WSW 00:27:24 47° WSW
CZ-4 R/B 3.4 00:25:16 11° SSW 00:28:14 24° W 00:31:27 10° NW
COSMOS 2487 3.8 00:26:16 10° NNW 00:28:06 32° NNW 00:28:06 32° NNW
Tsikada Rocket 3.8 00:30:30 10° N 00:36:43 88° E 00:38:34 49° S
Cosmos 540 Rocket 4.4 00:32:04 10° NNW 00:36:56 44° WSW 00:39:08 28° SSW
SL-27 R/B 4.4 00:34:38 10° NW 00:37:07 25° W 00:37:07 25° W
SJ-6B 3.9 00:42:13 40° NNW 00:42:13 40° NNW 00:44:45 10° NNW
GPS 2-17 Rocket1 3.4 00:36:53 10° WNW 00:41:00 62° W 00:41:00 62° W
Cosmos 2297 Rocket 3.7 00:38:58 10° NNE 00:41:45 23° NE 00:41:45 23° NE
Sich 1 3.7 00:40:53 10° NNW 00:44:51 51° W 00:44:51 51° W
Okean-O 3.3 00:46:52 51° W 00:46:52 51° W 00:51:04 10° NNW
Meteor 1-5 Rocket 4.1 00:43:23 10° N 00:48:38 73° W 00:48:47 73° WSW
ATLAS 2AS CENTAUR R/B 3.2 00:41:41 10° SSW 00:49:20 69° WNW 00:57:06 10° NNE
Meteor 1-27 Rocket 3.7 00:50:01 79° SW 00:50:19 83° W 00:56:04 10° N
ARGOS Delta rocket 4.2 00:46:25 10° N 00:51:06 68° N 00:51:06 68° N
Cosmos 1891 Rocket 4.5 00:52:31 61° SSW 00:53:46 85° W 01:00:13 10° N
Cosmos 841 Rocket 4.3 00:49:29 10° NNW 00:54:24 45° WSW 00:54:59 43° WSW
H-2A R/B 4.1 00:52:59 10° W 00:53:02 10° W 00:53:02 10° W
Cosmos 1513 Rocket 4.5 00:57:56 72° SSW 00:58:34 81° W 01:04:59 10° N
BLOCK DM-SL R/B 3.8 00:51:25 10° WSW 00:59:22 26° SW 00:59:22 26° SW
Cosmos 1464 Rocket 4.2 01:12:48 64° NW 01:12:48 64° NW 01:18:14 10° N
NOSS 3-2 (A) 4.2 01:10:33 10° NNW 01:19:11 81° WSW 01:19:48 77° SSW
NOSS 3-2 (C) 4.4 01:29:10 10° NNW 01:36:15 64° N 01:36:15 64° N
CENTAUR R/B 3.6 01:37:47 10° NW 01:46:08 59° W 01:46:08 59° W
Cosmos 2227 Rocket 4.4 01:45:08 10° NNW 01:46:40 19° NNW 01:46:40 19° NNW
ALOS 4.0 07:37:42 10° NNE 07:39:54 28° NNE 07:39:54 28° NNE
CZ-2C R/B 3.6 07:42:20 10° NNE 07:45:19 37° NNE 07:45:19 37° NNE
Lacrosse 4 Rocket 3.6 07:51:13 20° N 07:51:13 20° N 07:52:39 10° N
DELTA 2 R/B (1) 3.7 07:54:44 70° NE 07:54:44 70° NE 07:59:38 10° NE
Cosmos 1452 Rocket 4.1 07:54:31 51° ESE 07:54:51 52° ESE 07:59:58 10° NNE
Cosmos 1825 4.1 08:01:29 25° NNE 08:01:29 25° NNE 08:03:11 10° NNE
Sylda 5 4.3 08:06:51 17° SSE 08:06:51 17° SSE 08:08:52 10° SE
Cosmos 1633 4.4 08:08:13 26° E 08:08:28 26° E 08:11:27 10° NE
Meteor 2-1 Rocket 4.3 08:03:02 10° NNW 08:07:49 59° NW 08:07:49 59° NW
METEOR-M 4.0 08:04:31 10° N 08:09:52 87° WNW 08:10:19 76° SSW
Cosmos 2366 rocket 3.9 08:04:29 10° N 08:10:41 86° E 08:14:21 27° S
Meteor 2-20 4.4 08:08:37 44° S 08:10:44 83° E 08:16:53 10° N
Cosmos 2341 Rocket 4.0 08:05:42 10° NNW 08:11:54 57° W 08:11:54 57° W
Cosmos 1140 Rocket 4.2 08:08:19 10° N 08:13:23 51° ENE 08:18:25 10° SSE
SeaSat 1 3.4 08:12:49 10° N 08:16:24 34° NW 08:16:24 34° NW
SL-8 Rocket 3.9 08:11:38 10° NNW 08:17:50 63° W 08:19:24 48° SSW
CZ-2C R/B 3.0 08:19:39 19° N 08:19:39 19° N 08:21:22 10° NNE
Envisat 4.1 08:20:31 10° NNE 08:25:18 42° ESE 08:30:03 10° S
Cosmos 1484 Rocket 2.6 08:24:50 10° N 08:28:44 79° WNW 08:28:46 79° W
Haruka 3.6 08:17:15 10° WNW 08:29:09 75° NNE 08:33:00 10° ESE
Cosmos 1023 Rocket 4.4 08:26:19 10° NNW 08:31:33 89° W 08:36:44 10° SSE
Cosmos 2263 4.2 08:28:05 10° NNW 08:33:49 83° ENE 08:39:34 10° SSE
ARIANE 5 R/B 3.6 08:33:45 10° NNW 08:37:22 26° WNW 08:37:22 26° WNW
Nadezhda 3 Rocket 4.1 08:39:06 29° SSW 08:42:10 52° W 08:48:17 10° N
Cosmos 1825 Rocket 4.1 08:41:32 10° S 08:45:54 60° E 08:50:15 10° NNE
Cosmos 2058 Rocket 3.6 08:45:52 10° NNW 08:49:50 36° W 08:50:15 35° WSW
Cosmos 1110 Rocket 4.0 08:48:47 26° SSW 08:51:36 62° WNW 08:56:41 10° N
ATLAS 3B CENTAUR R/B 3.6 08:53:35 10° NW 08:56:32 19° N 09:00:53 10° NE
H-2A R/B 2.7 08:53:11 10° NNE 08:56:47 74° E 09:00:13 11° S
FALCON 9 R/B 1.8 08:48:49 10° NW 08:57:53 85° SW 09:01:08 10° SE
Cosmos 2369 Rocket 2.7 08:53:08 10° NW 08:58:06 34° WSW 09:03:06 10° SSW
ARIANE 5 R/B 3.7 08:57:43 11° S 08:58:38 12° SSE 09:00:16 10° SE
DELTA 4 R/B 3.4 08:58:03 10° NNW 08:59:07 12° N 09:00:36 10° NNE
Landsat 4 3.8 08:56:31 10° N 09:00:04 50° WNW 09:01:54 25° SW
CZ-4C R/B 3.3 08:57:23 10° SSE 09:00:48 67° ENE 09:04:20 10° N
Cosmos 1758 Rocket 4.2 09:01:33 24° SW 09:03:23 34° W 09:07:22 10° NNW
SJ-12 4.4 09:00:34 10° NNE 09:04:33 61° E 09:08:34 10° S
Cosmos 1331 Rocket 4.2 09:01:16 19° SW 09:04:43 49° WNW 09:09:44 10° N
Cosmos 1190 Rocket 3.9 08:59:33 10° NNW 09:04:49 70° WSW 09:10:06 10° S
MINOTAUR 4 R/B 4.1 09:01:22 10° SSE 09:04:51 78° ENE 09:08:19 10° N
Cosmos 1656 Rocket 4.1 09:00:47 10° NW 09:05:43 37° WSW 09:10:43 10° S
CZ-4B R/B 3.8 09:02:15 10° N 09:07:20 52° WNW 09:12:24 10° SSW
YAOGAN 6 3.2 09:05:39 10° N 09:08:59 37° WNW 09:11:04 19° SW
Cosmos 2058 2.7 09:05:15 10° S 09:09:19 77° W 09:13:23 10° N
Atlas Centaur 2 3.6 09:04:27 15° SW 09:10:51 51° SE 09:19:02 10° ENE
Meteor 1-27 4.2 09:07:04 10° NNW 09:12:39 61° W 09:18:09 10° S
Ariane H10-3 1.8 09:12:02 23° SW 09:13:00 32° S 09:14:57 10° ESE
Cosmos 1869 3.5 09:11:49 10° NNW 09:15:29 44° W 09:19:08 10° SSW
IUS R/B (1) 4.0 09:14:46 10° S 09:16:07 13° SSE 09:17:14 10° SE
Meteor 1-31 Rocket 4.1 09:15:20 10° NNE 09:18:51 39° E 09:22:25 10° S
Cosmos 1821 Rocket 4.3 09:14:25 10° NNW 09:20:30 48° W 09:26:33 10° SSW
NOAA 11 4.3 09:15:16 10° NNE 09:20:44 82° ESE 09:26:10 10° S
Cosmos 676 Rocket 4.0 09:18:04 10° NNW 09:23:23 84° WSW 09:28:41 10° S
CZ-2C R/B 4.3 09:25:44 10° NW 09:28:11 17° WNW 09:30:24 11° WSW
SL-8 R/B 3.7 09:24:17 10° SW 09:29:05 85° NW 09:33:54 10° NE
Genesis I 3.1 09:26:08 10° NNW 09:30:03 78° WSW 09:33:50 10° SSE
GPS 2-15 Rocket1 3.4 09:26:47 10° WNW 09:31:29 70° NNE 09:36:16 10° E
COSMOS 2406 3.3 09:26:07 10° SSW 09:31:50 84° ESE 09:37:35 10° NNE
Cosmos 1606 3.5 09:30:40 10° N 09:34:19 55° E 09:38:00 10° SSE
CZ-2C R/B 3.3 09:29:44 10° N 09:35:19 63° WNW 09:40:38 10° SSW
Cosmos 1812 Rocket 3.9 09:31:29 10° NNW 09:35:42 45° W 09:39:58 10° SSW
Delta 168 4.1 09:34:05 10° SSW 09:36:31 21° SSE 09:38:59 10° E
CZ-4B R/B 3.8 09:33:23 10° NNE 09:37:11 87° ESE 09:41:09 10° S
SL-08 R/B 4.2 09:36:09 10° SSW 09:39:59 26° W 09:43:48 10° NW
Cosmos 1953 Rocket 4.3 09:42:07 10° SSW 09:46:01 32° W 09:49:57 10° NNW
Cosmos 1727 Rocket 4.1 09:40:50 10° S 09:47:03 85° W 09:53:20 10° N
